Weather History for KUGN - March, 2013

Change the Weather History Date:

Saturday, March 30, 2013

  Actual Average Record
Temperature  
Mean Temperature 42 °F -  
Max Temperature 59 °F 49 °F 73 °F (2005)
Min Temperature 25 °F 31 °F 17 °F (2009)
Degree Days  
Heating Degree Days 23 25  
Month to date heating degree days 1058 900  
Since 1 July heating degree days 5659 5846  
Cooling Degree Days 0 0  
Month to date cooling degree days 0 0  
Year to date cooling degree days 0 0  
Moisture  
Dew Point 31 °F    
Average Humidity 68    
Maximum Humidity 92    
Minimum Humidity 43    
Precipitation  
Precipitation T in 0.10 in 0.24 in (2012)
Month to date precipitation 1.26 2.23  
Year to date precipitation 3.42 5.28  
Sea Level Pressure  
Sea Level Pressure 30.06 in    
Wind  
Wind Speed 9 mph (South)    
Max Wind Speed 21 mph    
Max Gust Speed 26 mph    
Visibility 9 miles    
Events      
T = Trace of Precipitation, MM = Missing Value Source: NWS Daily Summary

Daily Weather History Graph

Daily Weather History Graph

Search for Another Location

Airport or City:

Trip Planner

Search our weather history database for the weather conditions in past years. The results will help you decide how hot, cold, wet, or windy it might be!

Date:

Astronomy

Mar. 30, 2013 Rise Set
Actual Time 6:36 AM CDT 7:15 PM CDT
Civil Twilight 6:08 AM CDT 7:43 PM CDT
Nautical Twilight 5:35 AM CDT 8:17 PM CDT
Astronomical Twilight 5:00 AM CDT 8:52 PM CDT
Moon 11:26 PM CDT (3/30) 8:27 AM CDT (3/30)
Length of Visible Light 13h 35m
Length of Day
12h 38m
Waning Gibbous, 86% of the Moon is Illuminated
Mar 30
Waning Gibbous
Apr 2
Last Quarter
Apr 10
New
Apr 18
First Quarter
Apr 25
Full

Hourly Weather History & Observations

Time (CDT) Temp. Windchill Dew Point Humidity Pressure Visibility Wind Dir Wind Speed Gust Speed Precip Events Conditions
12:52 AM 26.1 °F - 24.1 °F 92% 30.26 in 6.0 mi Calm Calm - N/A   Clear
1:52 AM 25.0 °F - 23.0 °F 92% 30.25 in 6.0 mi Calm Calm - N/A   Clear
2:52 AM 27.0 °F - 25.0 °F 92% 30.24 in 7.0 mi Calm Calm - N/A   Clear
3:52 AM 28.9 °F - 25.0 °F 85% 30.22 in 8.0 mi Calm Calm - N/A   Clear
4:52 AM 28.9 °F - 26.1 °F 89% 30.22 in 8.0 mi Calm Calm - N/A   Clear
5:52 AM 30.9 °F 26.2 °F 25.0 °F 79% 30.21 in 8.0 mi SSW 4.6 mph - N/A   Clear
6:52 AM 28.0 °F 24.2 °F 24.1 °F 85% 30.20 in 6.0 mi SSW 3.5 mph - N/A   Clear
7:52 AM 36.0 °F 31.1 °F 25.0 °F 64% 30.19 in 10.0 mi South 5.8 mph - N/A   Clear
8:52 AM 41.0 °F 36.4 °F 25.0 °F 53% 30.17 in 10.0 mi SSE 6.9 mph - N/A   Clear
9:52 AM 44.1 °F 39.0 °F 25.0 °F 47% 30.15 in 10.0 mi SE 9.2 mph - N/A   Clear
10:52 AM 46.9 °F - 30.0 °F 52% 30.13 in 10.0 mi ESE 10.4 mph - N/A   Clear
11:52 AM 46.0 °F 41.4 °F 30.0 °F 54% 30.10 in 10.0 mi SE 9.2 mph - N/A   Clear
12:52 PM 46.9 °F - 30.0 °F 52% 30.06 in 9.0 mi SE 11.5 mph - N/A   Clear
1:52 PM 50.0 °F - 34.0 °F 54% 30.02 in 9.0 mi SE 8.1 mph - N/A   Clear
2:52 PM 57.9 °F - 35.1 °F 42% 29.97 in 10.0 mi South 10.4 mph 19.6 mph N/A   Clear
3:52 PM 57.9 °F - 35.1 °F 42% 29.94 in 10.0 mi South 12.7 mph 21.9 mph N/A   Mostly Cloudy
4:52 PM 55.9 °F - 33.1 °F 42% 29.93 in 10.0 mi SSW 17.3 mph 24.2 mph N/A   Overcast
5:52 PM 54.0 °F - 35.1 °F 49% 29.92 in 10.0 mi SSW 13.8 mph - N/A   Overcast
6:52 PM 53.1 °F - 36.0 °F 52% 29.91 in 10.0 mi SSW 15.0 mph 21.9 mph N/A   Overcast
7:52 PM 52.0 °F - 37.9 °F 59% 29.90 in 10.0 mi SSW 10.4 mph - 0.00 in   Overcast
8:52 PM 51.1 °F - 39.0 °F 63% 29.88 in 10.0 mi SSW 12.7 mph - N/A   Overcast
9:52 PM 50.0 °F - 39.0 °F 66% 29.86 in 9.0 mi South 10.4 mph - N/A   Overcast
10:52 PM 48.9 °F - 39.0 °F 69% 29.86 in 9.0 mi South 9.2 mph - N/A   Overcast
11:52 PM 48.0 °F - 39.0 °F 71% 29.83 in 8.0 mi SSW 10.4 mph - N/A   Overcast